COSMOS 249 DEB, 3584

Orbit data source: Space-Track

COSMOS 249 DEB, 3584 is space debris in LEO originally from a launch on Sun, 20 Oct 1968 UTC launched from the Tyuratam Missile And Space Complex (TTMTR). Debris objects in space refer to the collection of defunct objects orbiting the Earth. Examples of debris include non-operational satellites, rocket bodies, and fragments generated from explosions, collisions, or faulty payload assembly.

Loading next visibility...
Identifier
3584, 1968-091S
Orbit
LEO
Country
Flag of CISCIS
Related business
Manufacturer
Unknown
Mission
Spacecraft
Bus & Motor
Unknown
Mass
Unknown
Launch date (UTC)
1968-10-20 (57 years ago)
Launch vehicle
Unknown
Launch site
Tyuratam Missile And Space Complex (TTMTR)
Object type
Payload
Rocket body
Debris
Shape & HBR
Unknown shape, 0.1 m
Radar Cross Section
Small (<0.1 m²)

Expand to show TLE details & history
Last TLE update: 13 hours ago

TLE from 13 hours ago
0 COSMOS 249 DEB
1  3584U 68091S   25318.44633037  .00011782  00000-0  12636-2 0  9992
2  3584  62.2932 310.7123 0312262 157.1361 204.3973 14.59340908831499
Epoch: 2025-11-14T10:42Z
TLE epoch observation values (Epoch: 2025-11-14T10:42:42.943Z)
Latitude
-0.00006°
Longitude
96.24363°
Altitude
899.369 km
Speed
7.297 km/s
True Right ascension
20h 42m 50s
True Declination
0° 00' 00"
Sunlit
Object was in daylight at epoch
Visualization orbit readout
Latitude
Unknown
Longitude
Unknown
Altitude
Unknown
Speed
Unknown
Apparent Right ascension
Unknown
Apparent Declination
Unknown
Sunlit
N/A
Visualization observer readout
Local Sidereal Time
20:01:33
Azimuth
Unknown
Elevation
Unknown
Doppler factor
Unknown
Orbital elements
Apogee altitude
915.054 km
Perigee altitude
473.369 km
Semi-major axis
7,072.349 km
Eccentricity
0.03123
Inclination
62.2932°
RAAN
310.7123°
Arg. of periapsis
157.1361°
True anomaly
202.97021°
Mean anomaly
204.3973°
Eccentric anomaly
203.67877°
Mean motion
3.6492 °/min
Orbital period
98.65 mins
BSTAR
0.0012636
Loading maneuver chart data...
Computing Atmospheric mass density...

Documentation

Showing up to 5 results
|